This is the latest recevied weather packets stored in our database for station/object EA4GRN-10. If no packets are shown the sender has not sent any weather packets the latest 10 day(s).
| Time | Temp. | Humidity | Pressure | Rain* | Wind** | Luminosity | Snow |
|---|---|---|---|---|---|---|---|
| 1787704555 | 30.56° C | 43% | 1026.8 hPa | - | - | - | - |
| 1787703655 | 30.56° C | 43% | 1026.9 hPa | - | - | - | - |
| 1787702755 | 30.56° C | 42% | 1027.3 hPa | - | - | - | - |
| 1787701855 | 30.56° C | 42% | 1027.3 hPa | - | - | - | - |
| 1787700955 | 30.56° C | 42% | 1027.3 hPa | - | - | - | - |
| 1787700055 | 31.11° C | 42% | 1027.4 hPa | - | - | - | - |
| 1787699154 | 30.56° C | 41% | 1027.7 hPa | - | - | - | - |
| 1787698254 | 30.56° C | 41% | 1027.6 hPa | - | - | - | - |
| 1787697354 | 30.56° C | 42% | 1027.5 hPa | - | - | - | - |
| 1787696454 | 30.56° C | 41% | 1027.4 hPa | - | - | - | - |
| 1787695554 | 30.56° C | 43% | 1027.4 hPa | - | - | - | - |
| 1787694654 | 31.11° C | 42% | 1027.4 hPa | - | - | - | - |
| 1787693753 | 31.11° C | 43% | 1027.3 hPa | - | - | - | - |
| 1787692853 | 31.11° C | 44% | 1027.4 hPa | - | - | - | - |
| 1787691953 | 31.11° C | 43% | 1027.3 hPa | - | - | - | - |
| 1787691053 | 31.11° C | 42% | 1027.3 hPa | - | - | - | - |
| 1787690153 | 31.11° C | 43% | 1027.2 hPa | - | - | - | - |
| 1787689253 | 31.11° C | 43% | 1027.1 hPa | - | - | - | - |
| 1787688353 | 31.11° C | 41% | 1027 hPa | - | - | - | - |
| 1787687452 | 31.11° C | 42% | 1026.9 hPa | - | - | - | - |
| 1787686552 | 32.78° C | 42% | 1026.8 hPa | - | - | - | - |
| 1787685655 | 30.56° C | 45% | 1026.7 hPa | - | - | - | - |
| 1787685335 | 31.67° C | 44% | 1026.6 hPa | - | - | - | - |
| 1787684435 | 31.67° C | 44% | 1026.6 hPa | - | - | - | - |
| 1787683535 | 31.67° C | 44% | 1026.6 hPa | - | - | - | - |
* Rain since midnight (hover to see other rain measurements)
** Current wind speed in m/s (hover to see current wind gust speed)